sat.trackr.live / text

‹ back to catalog

STARLINK-35447

NORAD 66589 · 2025-270B

PAYLOAD ACTIVE UNKNOWN

§ Identity

Operator
Country
US
Launch date
2025-11-22
Launch site
AFETR
Launch vehicle
Mass (kg)
RCS (m²)

Purposes: comms

External: N2YO · Heavens-Above · Gunter

§ Orbital elements

Epoch: 2026-05-24T23:31:43.364064Z

Period
94.27 min
Inclination
43.0016°
Eccentricity
0.0001106
Mean motion
15.27595903 rev/d
Perigee alt
482.2 km
Apogee alt
483.8 km
Semi-major
6,861.1 km
B*
6.4703e-4
RAAN
345.3298°
Arg perigee
264.5974°
Mean anomaly
95.4751°
Rev number
2,948

§ Raw data

STARLINK-354471 66589U 25270B   26144.98036301  .00017594  00000+0  64703-3 0  99952 66589  43.0016 345.3298 0001106 264.5974  95.4751 15.27595903 29489

JSON: /api/v1/satellites/66589 · /tle

For live sub-satellite position, see the globe view (requires WebGL).

§ Visibility from observer

Set your observer location to see the next 7 days of passes ≥ 10°. The values pass through the URL so the page stays shareable.

No JS? Fill the form by hand. The geolocation button needs JavaScript.